COSMOS 1333

导读

COSMOS 1333是独联体(CIS)于1982年1月14日08:00发射的卫星,隶属于苏联/俄罗斯“宇宙”(Cosmos)系列卫星。该系列涵盖多种航天任务,包括军事侦察、空间物理探测、技术试验等领域,多数卫星运行在近地轨道。作为冷战时期航天活动的产物,COSMOS 1333见证了苏联航天技术发展,是苏联航天工程体系的组成部分。

基本信息
目录编号:
13033
目录名称:
COSMOS 1333
国际标识:
1982-003A
轨道中心:
EARTH
卫星名称:
COSMOS 1333
卫星全名:
--
卫星状态:
在轨 (已飞行16220 天)
发射日期:
1982-01-14 UTC
国别 :
俄罗斯(独联体) (CIS)
星等 :
--
轨道信息
数据来源 国际轨道数据 AOE轨道数据
星历时间 2026-06-12T10:32:27+0800
17小时前
查看轨道信息
2026-06-12T07:00:00+0800
20小时前
查看轨道信息
半长轴 7365.265km 7365.266km
偏心率 0.0031633 0.0031651
轨道倾角 82.941° 82.942°
近地点辐角 201.316° 201.309°
升交点赤经 168.991° 169.100°
平近点角 224.589° 215.506°
近地点 963.829km 963.817km
远地点 1010.427km 1010.441km
周期 104.844分钟 104.844分钟
每日圈数 13.734734 13.73473
详细信息
使用方式:
暂无
2D轨道图
3D轨道图
轨道高度分析图
轨道倾角分析图
轨道综合分析图
查看轨道综合分析图